This is the latest recevied weather packets stored in our database for station/object 7L2IWN-13. If no packets are shown the sender has not sent any weather packets the latest 10 day(s).
| Time | Temp. | Humidity | Pressure | Rain* | Wind** | Luminosity | Snow |
|---|---|---|---|---|---|---|---|
| 1788526803 | 20° C | 99% | 1011.6 hPa | 1.27 mm | - | - | - |
| 1788526082 | 20° C | 99% | 1011.6 hPa | 1.02 mm | - | - | - |
| 1788525363 | 20.56° C | 99% | 1011.4 hPa | 1.02 mm | - | - | - |
| 1788524643 | 21.67° C | 97% | 1011.6 hPa | 0.51 mm | - | - | - |
| 1788523922 | 21.67° C | 97% | 1012.1 hPa | 0.76 mm | - | - | - |
| 1788523202 | 20.56° C | 99% | 1011.9 hPa | 0.51 mm | - | - | - |
| 1788522481 | 20.56° C | 99% | 1012.1 hPa | 0.51 mm | - | - | - |
| 1788521763 | 21.11° C | 99% | 1012.7 hPa | 0.51 mm | - | - | - |
| 1788521041 | 21.11° C | 99% | 1012.4 hPa | 0.76 mm | - | - | - |
| 1788520323 | 21.67° C | 99% | 1012.6 hPa | 0.51 mm | - | - | - |
| 1788519603 | 22.22° C | 95% | 1012.3 hPa | 0.51 mm | - | - | - |
| 1788518882 | 22.22° C | 99% | 1012.1 hPa | 0.51 mm | - | - | - |
| 1788518161 | 21.67° C | 99% | 1011.6 hPa | 0.25 mm | - | - | - |
| 1788517442 | 22.22° C | 99% | 1011.6 hPa | 0 mm | - | - | - |
| 1788516723 | 21.67° C | 99% | 1011.4 hPa | 0 mm | - | - | - |
| 1788516003 | 21.67° C | 99% | 1011.1 hPa | 0 mm | - | - | - |
| 1788515281 | 21.67° C | 99% | 1010.8 hPa | 0 mm | - | - | - |
| 1788514563 | 22.22° C | 99% | 1010.7 hPa | 0 mm | - | - | - |
| 1788513842 | 21.67° C | 99% | 1011.3 hPa | 0 mm | - | - | - |
| 1788513123 | 21.67° C | 99% | 1011.5 hPa | 0 mm | - | - | - |
| 1788512403 | 21.67° C | 99% | 1011.6 hPa | 0 mm | - | - | - |
| 1788511682 | 21.67° C | 99% | 1011.2 hPa | 0 mm | - | - | - |
| 1788510964 | 21.67° C | 99% | 1010.9 hPa | 0 mm | - | - | - |
| 1788510243 | 22.22° C | 99% | 1010.4 hPa | 0 mm | - | - | - |
| 1788509522 | 22.22° C | 99% | 1011 hPa | 0 mm | - | - | - |
* Rain latest hour (hover to see other rain measurements)
** Current wind speed in m/s (hover to see current wind gust speed)